| time (UTC) | temp F | wind direction | speed MPH | gust MPH | rain 1hr in | rain 24hr in | rain mn in | humidity % | barometer mb |
| 20260510225802 | 72 | 48 | 2.0 | 6.0 | 0.00 | 0.00 | 0.00 | 43 | 1011.6 |
| 20260510225306 | 72 | 61 | 2.0 | 6.0 | 0.00 | 0.00 | 0.00 | 42 | 1011.7 |
| 20260510224803 | 72 | 48 | 2.0 | 9.0 | 0.00 | 0.00 | 0.00 | 41 | 1011.6 |
| 20260510224303 | 72 | 98 | 2.0 | 9.0 | 0.00 | 0.00 | 0.00 | 41 | 1011.5 |
| 20260510223803 | 72 | 91 | 2.0 | 7.0 | 0.00 | 0.00 | 0.00 | 41 | 1011.5 |
| 20260510223301 | 72 | 46 | 1.0 | 5.0 | 0.00 | 0.00 | 0.00 | 42 | 1011.5 |
| 20260510222803 | 72 | 44 | 3.0 | 9.0 | 0.00 | 0.00 | 0.00 | 42 | 1011.6 |
| 20260510222306 | 72 | 58 | 3.0 | 9.0 | 0.00 | 0.00 | 0.00 | 41 | 1011.7 |
| 20260510221803 | 72 | 152 | 2.0 | 9.0 | 0.00 | 0.00 | 0.00 | 41 | 1011.6 |
| 20260510221303 | 73 | 140 | 1.0 | 4.0 | 0.00 | 0.00 | 0.00 | 41 | 1011.5 |
| 20260510220802 | 73 | 132 | 2.0 | 6.0 | 0.00 | 0.00 | 0.00 | 42 | 1011.5 |
| 20260510220302 | 73 | 134 | 2.0 | 6.0 | 0.00 | 0.00 | 0.00 | 39 | 1011.5 |
| 20260510215803 | 73 | 52 | 2.0 | 6.0 | 0.00 | 0.00 | 0.00 | 39 | 1011.6 |
| 20260510215306 | 73 | 49 | 2.0 | 6.0 | 0.00 | 0.00 | 0.00 | 38 | 1011.6 |
| 20260510214804 | 73 | 117 | 2.0 | 7.0 | 0.00 | 0.00 | 0.00 | 38 | 1011.6 |
| 20260510214301 | 74 | 140 | 2.0 | 7.0 | 0.00 | 0.00 | 0.00 | 38 | 1011.7 |
| 20260510213801 | 74 | 46 | 2.0 | 8.0 | 0.00 | 0.00 | 0.00 | 38 | 1011.7 |
| 20260510213302 | 74 | 181 | 2.0 | 8.0 | 0.00 | 0.00 | 0.00 | 38 | 1011.7 |
| 20260510212802 | 74 | 127 | 1.0 | 5.0 | 0.00 | 0.00 | 0.00 | 39 | 1011.8 |
| 20260510212306 | 73 | 145 | 1.0 | 3.0 | 0.00 | 0.00 | 0.00 | 41 | 1012.0 |
| 20260510211801 | 73 | 154 | 0.0 | 3.0 | 0.00 | 0.00 | 0.00 | 41 | 1012.1 |
| 20260510211303 | 72 | 152 | 0.0 | 3.0 | 0.00 | 0.00 | 0.00 | 42 | 1012.2 |
| 20260510210800 | 72 | 153 | 1.0 | 3.0 | 0.00 | 0.00 | 0.00 | 43 | 1012.1 |
| 20260510210300 | 72 | 152 | 1.0 | 3.0 | 0.00 | 0.00 | 0.00 | 43 | 1012.3 |
| 20260510205802 | 72 | 151 | 1.0 | 4.0 | 0.00 | 0.00 | 0.00 | 44 | 1012.3 |
| 20260510205301 | 72 | 136 | 0.0 | 4.0 | 0.00 | 0.00 | 0.00 | 42 | 1012.2 |
| 20260510204803 | 72 | 190 | 0.0 | 3.0 | 0.00 | 0.00 | 0.00 | 41 | 1012.3 |
| 20260510204302 | 72 | 191 | 1.0 | 3.0 | 0.00 | 0.00 | 0.00 | 43 | 1012.3 |
| 20260510203802 | 71 | 190 | 1.0 | 3.0 | 0.00 | 0.00 | 0.00 | 45 | 1012.4 |
| 20260510203303 | 71 | 190 | 1.0 | 3.0 | 0.00 | 0.00 | 0.00 | 44 | 1012.3 |
| 20260510202802 | 71 | 154 | 1.0 | 3.0 | 0.00 | 0.00 | 0.00 | 45 | 1012.3 |
| 20260510202306 | 71 | 155 | 1.0 | 5.0 | 0.00 | 0.00 | 0.00 | 45 | 1012.3 |
| 20260510201802 | 71 | 156 | 1.0 | 5.0 | 0.00 | 0.00 | 0.00 | 46 | 1012.4 |
| 20260510201302 | 70 | 154 | 1.0 | 5.0 | 0.00 | 0.00 | 0.00 | 49 | 1012.4 |
| 20260510201101 | 70 | 150 | 1.0 | 5.0 | 0.00 | 0.00 | 0.00 | 48 | 1012.5 |
| 20260510200300 | 69 | 141 | 1.0 | 5.0 | 0.00 | 0.00 | 0.00 | 47 | 1012.5 |
| 20260510195805 | 69 | 149 | 1.0 | 5.0 | 0.00 | 0.00 | 0.00 | 49 | 1012.5 |
| 20260510195306 | 68 | 124 | 1.0 | 4.0 | 0.00 | 0.00 | 0.00 | 52 | 1012.6 |
| 20260510194804 | 67 | 112 | 1.0 | 4.0 | 0.00 | 0.00 | 0.00 | 51 | 1012.9 |
| 20260510194302 | 67 | 113 | 1.0 | 4.0 | 0.00 | 0.00 | 0.00 | 51 | 1013.1 |
| 20260510194104 | 66 | 181 | 1.0 | 4.0 | 0.00 | 0.00 | 0.00 | 51 | 1013.5 |
| 20260510193302 | 66 | 180 | 1.0 | 4.0 | 0.00 | 0.00 | 0.00 | 52 | 1013.6 |
| 20260510192801 | 66 | 180 | 1.0 | 4.0 | 0.00 | 0.00 | 0.00 | 50 | 1013.6 |
| 20260510192301 | 67 | 149 | 1.0 | 3.0 | 0.00 | 0.00 | 0.00 | 48 | 1013.7 |
| 20260510191802 | 67 | 143 | 0.0 | 3.0 | 0.00 | 0.00 | 0.00 | 48 | 1013.6 |
| 20260510191301 | 67 | 140 | 0.0 | 3.0 | 0.00 | 0.00 | 0.00 | 48 | 1013.6 |
| 20260510190802 | 67 | 140 | 0.0 | 3.0 | 0.00 | 0.00 | 0.00 | 49 | 1013.7 |
| 20260510190301 | 67 | 140 | 0.0 | 2.0 | 0.00 | 0.00 | 0.00 | 48 | 1013.7 |
| 20260510185802 | 66 | 140 | 0.0 | 3.0 | 0.00 | 0.00 | 0.00 | 46 | 1013.7 |
| 20260510185600 | 66 | 139 | 1.0 | 4.0 | 0.00 | 0.00 | 0.00 | 47 | 1013.9 |
| 20260510184801 | 67 | 141 | 1.0 | 4.0 | 0.00 | 0.00 | 0.00 | 47 | 1013.9 |
| 20260510184301 | 66 | 163 | 1.0 | 4.0 | 0.00 | 0.00 | 0.00 | 48 | 1013.9 |
| 20260510183801 | 66 | 163 | 2.0 | 6.0 | 0.00 | 0.00 | 0.00 | 49 | 1014.0 |
| 20260510183302 | 65 | 170 | 1.0 | 6.0 | 0.00 | 0.00 | 0.00 | 48 | 1014.1 |
| 20260510183104 | 65 | 95 | 1.0 | 4.0 | 0.00 | 0.00 | 0.00 | 48 | 1014.3 |
| 20260510182306 | 64 | 85 | 1.0 | 3.0 | 0.00 | 0.00 | 0.00 | 49 | 1014.5 |
| 20260510181803 | 63 | 71 | 1.0 | 5.0 | 0.00 | 0.00 | 0.00 | 51 | 1014.6 |
| 20260510181302 | 63 | 71 | 1.0 | 5.0 | 0.00 | 0.00 | 0.00 | 51 | 1014.6 |
| 20260510181058 | 63 | 80 | 1.0 | 5.0 | 0.00 | 0.00 | 0.00 | 51 | 1014.7 |
| 20260510180303 | 62 | 125 | 1.0 | 3.0 | 0.00 | 0.00 | 0.00 | 55 | 1014.8 |
| 20260510180059 | 62 | 124 | 1.0 | 3.0 | 0.00 | 0.00 | 0.00 | 55 | 1015.0 |
| 20260510175306 | 62 | 123 | 1.0 | 3.0 | 0.00 | 0.00 | 0.00 | 56 | 1015.0 |
| 20260510174804 | 61 | 124 | 1.0 | 3.0 | 0.00 | 0.00 | 0.00 | 57 | 1015.1 |
| 20260510174305 | 61 | 124 | 1.0 | 3.0 | 0.00 | 0.00 | 0.00 | 60 | 1015.3 |
| 20260510173804 | 61 | 125 | 1.0 | 4.0 | 0.00 | 0.00 | 0.00 | 60 | 1015.3 |
| 20260510173304 | 61 | 125 | 1.0 | 4.0 | 0.00 | 0.00 | 0.00 | 60 | 1015.3 |
| 20260510172805 | 60 | 124 | 1.0 | 4.0 | 0.00 | 0.00 | 0.00 | 62 | 1015.3 |
| 20260510172307 | 60 | 122 | 1.0 | 4.0 | 0.00 | 0.00 | 0.00 | 61 | 1015.4 |
| 20260510171805 | 60 | 122 | 1.0 | 4.0 | 0.00 | 0.00 | 0.00 | 60 | 1015.5 |
| 20260510171305 | 60 | 122 | 1.0 | 4.0 | 0.00 | 0.00 | 0.00 | 60 | 1015.4 |
| 20260510170803 | 60 | 121 | 1.0 | 6.0 | 0.00 | 0.00 | 0.00 | 56 | 1015.6 |
| 20260510170304 | 60 | 123 | 1.0 | 6.0 | 0.00 | 0.00 | 0.00 | 57 | 1015.6 |
| 20260510165804 | 60 | 88 | 2.0 | 6.0 | 0.00 | 0.00 | 0.00 | 59 | 1015.7 |
| 20260510165306 | 60 | 99 | 1.0 | 6.0 | 0.00 | 0.00 | 0.00 | 58 | 1015.7 |
| 20260510165059 | 60 | 100 | 1.0 | 4.0 | 0.00 | 0.00 | 0.00 | 59 | 1015.7 |
| 20260510164306 | 60 | 104 | 1.0 | 4.0 | 0.00 | 0.00 | 0.00 | 59 | 1015.7 |
| 20260510163804 | 60 | 110 | 1.0 | 4.0 | 0.00 | 0.00 | 0.00 | 59 | 1015.8 |
| 20260510163415 | 59 | 141 | 0.0 | 2.0 | 0.00 | 0.00 | 0.00 | 61 | 1016.2 |
| 20260510163350 | 59 | 130 | 0.0 | 3.0 | 0.00 | 0.00 | 0.00 | 59 | 1016.1 |
| 20260510162306 | 59 | 141 | 0.0 | 2.0 | 0.00 | 0.00 | 0.00 | 61 | 1016.1 |
| 20260510161804 | 59 | 142 | 1.0 | 4.0 | 0.00 | 0.00 | 0.00 | 61 | 1016.1 |
| 20260510161420 | 59 | 127 | 1.0 | 3.0 | 0.00 | 0.00 | 0.00 | 59 | 1016.2 |
| 20260510161350 | 59 | 141 | 1.0 | 4.0 | 0.00 | 0.00 | 0.00 | 60 | 1016.2 |
| 20260510160730 | 57 | 115 | 0.0 | 3.0 | 0.00 | 0.00 | 0.00 | 61 | 1016.3 |
| 20260510160657 | 58 | 115 | 0.0 | 2.0 | 0.00 | 0.00 | 0.00 | 59 | 1016.2 |
| 20260510155306 | 57 | 114 | 0.0 | 3.0 | 0.00 | 0.00 | 0.00 | 65 | 1016.3 |
| 20260510154804 | 56 | 113 | 0.0 | 2.0 | 0.00 | 0.00 | 0.00 | 65 | 1016.2 |
| 20260510154305 | 56 | 114 | 0.0 | 3.0 | 0.00 | 0.00 | 0.00 | 65 | 1016.2 |
| 20260510154112 | 56 | 114 | 0.0 | 3.0 | 0.00 | 0.00 | 0.00 | 66 | 1016.4 |
| 20260510153303 | 55 | 114 | 0.0 | 1.0 | 0.00 | 0.00 | 0.00 | 67 | 1016.5 |
| 20260510153101 | 55 | 114 | 0.0 | 2.0 | 0.00 | 0.00 | 0.00 | 65 | 1016.6 |
| 20260510152306 | 55 | 114 | 0.0 | 2.0 | 0.00 | 0.00 | 0.00 | 65 | 1016.7 |
| 20260510152059 | 55 | 114 | 0.0 | 1.0 | 0.00 | 0.00 | 0.00 | 67 | 1016.6 |
| 20260510151301 | 54 | 114 | 0.0 | 1.0 | 0.00 | 0.00 | 0.00 | 67 | 1016.6 |
| 20260510150800 | 53 | 114 | 0.0 | 1.0 | 0.00 | 0.00 | 0.00 | 68 | 1016.7 |
| 20260510150301 | 53 | 114 | 0.0 | 2.0 | 0.00 | 0.00 | 0.00 | 68 | 1016.7 |
| 20260510145801 | 53 | 114 | 0.0 | 2.0 | 0.00 | 0.00 | 0.00 | 69 | 1016.8 |
| 20260510145305 | 52 | 114 | 0.0 | 1.0 | 0.00 | 0.00 | 0.00 | 72 | 1016.8 |
| 20260510145057 | 52 | 114 | 0.0 | 1.0 | 0.00 | 0.00 | 0.00 | 72 | 1016.8 |
| 20260510144300 | 51 | 114 | 0.0 | 1.0 | 0.00 | 0.00 | 0.00 | 74 | 1016.8 |
| 20260510143802 | 51 | 114 | 0.0 | 1.0 | 0.00 | 0.00 | 0.00 | 74 | 1016.8 |
| 20260510143300 | 51 | 114 | 0.0 | 0.0 | 0.00 | 0.00 | 0.00 | 76 | 1016.8 |
| 20260510142801 | 51 | 114 | 0.0 | 0.0 | 0.00 | 0.00 | 0.00 | 75 | 1016.7 |
| 20260510142305 | 50 | 114 | 0.0 | 0.0 | 0.00 | 0.00 | 0.00 | 75 | 1016.7 |
| 20260510141803 | 50 | 114 | 0.0 | 1.0 | 0.00 | 0.00 | 0.00 | 75 | 1016.7 |
| 20260510141302 | 50 | 114 | 0.0 | 1.0 | 0.00 | 0.00 | 0.00 | 75 | 1016.8 |
| 20260510140802 | 51 | 114 | 0.0 | 2.0 | 0.00 | 0.00 | 0.00 | 74 | 1016.8 |
| 20260510140301 | 51 | 114 | 0.0 | 2.0 | 0.00 | 0.00 | 0.00 | 74 | 1016.8 |
| 20260510135803 | 51 | 114 | 0.0 | 1.0 | 0.00 | 0.00 | 0.00 | 74 | 1016.7 |
| 20260510135305 | 50 | 114 | 0.0 | 0.0 | 0.00 | 0.00 | 0.00 | 74 | 1016.7 |
| 20260510135159 | 50 | 114 | 0.0 | 0.0 | 0.00 | 0.00 | 0.00 | 75 | 1016.7 |
| 20260510135154 | 50 | 114 | 0.0 | 0.0 | 0.00 | 0.00 | 0.00 | 75 | 1016.6 |
| 20260510133800 | 50 | 114 | 0.0 | 0.0 | 0.00 | 0.00 | 0.00 | 76 | 1016.8 |
| 20260510133301 | 49 | 114 | 0.0 | 0.0 | 0.00 | 0.00 | 0.00 | 76 | 1016.7 |
| 20260510132802 | 49 | 114 | 0.0 | 0.0 | 0.00 | 0.00 | 0.00 | 76 | 1016.8 |
| 20260510132305 | 49 | 114 | 0.0 | 0.0 | 0.00 | 0.00 | 0.00 | 77 | 1016.8 |
| 20260510131802 | 49 | 114 | 0.0 | 0.0 | 0.00 | 0.00 | 0.00 | 77 | 1016.8 |
| 20260510131300 | 49 | 114 | 0.0 | 0.0 | 0.00 | 0.00 | 0.00 | 77 | 1016.7 |
| 20260510131057 | 49 | 114 | 0.0 | 0.0 | 0.00 | 0.00 | 0.00 | 77 | 1016.7 |
| 20260510130300 | 49 | 114 | 0.0 | 0.0 | 0.00 | 0.00 | 0.00 | 76 | 1016.7 |
| 20260510125804 | 49 | 114 | 0.0 | 0.0 | 0.00 | 0.00 | 0.00 | 76 | 1016.7 |
| 20260510125555 | 49 | 114 | 0.0 | 0.0 | 0.00 | 0.00 | 0.00 | 76 | 1016.7 |
| 20260510124804 | 49 | 114 | 0.0 | 0.0 | 0.00 | 0.00 | 0.00 | 76 | 1016.6 |
| 20260510124304 | 49 | 114 | 0.0 | 0.0 | 0.00 | 0.00 | 0.00 | 76 | 1016.6 |
| 20260510123805 | 49 | 114 | 0.0 | 0.0 | 0.00 | 0.00 | 0.00 | 75 | 1016.6 |
| 20260510123304 | 49 | 114 | 0.0 | 0.0 | 0.00 | 0.00 | 0.00 | 75 | 1016.7 |
| 20260510122804 | 49 | 114 | 0.0 | 0.0 | 0.00 | 0.00 | 0.00 | 75 | 1016.7 |
| 20260510122306 | 49 | 114 | 0.0 | 0.0 | 0.00 | 0.00 | 0.00 | 75 | 1016.7 |
| 20260510121806 | 49 | 114 | 0.0 | 0.0 | 0.00 | 0.00 | 0.00 | 75 | 1016.8 |
| 20260510121305 | 49 | 114 | 0.0 | 0.0 | 0.00 | 0.00 | 0.00 | 74 | 1016.8 |
| 20260510120805 | 49 | 114 | 0.0 | 0.0 | 0.00 | 0.00 | 0.00 | 74 | 1016.9 |
| 20260510120303 | 49 | 114 | 0.0 | 0.0 | 0.00 | 0.00 | 0.00 | 74 | 1017.0 |
| 20260510120059 | 49 | 114 | 0.0 | 0.0 | 0.00 | 0.00 | 0.00 | 74 | 1016.9 |
| 20260510115307 | 49 | 114 | 0.0 | 0.0 | 0.00 | 0.00 | 0.00 | 74 | 1016.9 |
| 20260510114801 | 49 | 114 | 0.0 | 0.0 | 0.00 | 0.00 | 0.00 | 74 | 1016.9 |
| 20260510114300 | 49 | 114 | 0.0 | 0.0 | 0.00 | 0.00 | 0.00 | 74 | 1016.9 |
| 20260510113801 | 49 | 114 | 0.0 | 0.0 | 0.00 | 0.00 | 0.00 | 74 | 1017.0 |
| 20260510113304 | 49 | 114 | 0.0 | 0.0 | 0.00 | 0.00 | 0.00 | 74 | 1017.0 |
| 20260510112803 | 49 | 114 | 0.0 | 0.0 | 0.00 | 0.00 | 0.00 | 74 | 1017.0 |
| 20260510112601 | 49 | 114 | 0.0 | 0.0 | 0.00 | 0.00 | 0.00 | 74 | 1017.0 |
| 20260510111803 | 50 | 114 | 0.0 | 0.0 | 0.00 | 0.00 | 0.00 | 74 | 1016.9 |
| 20260510111301 | 50 | 114 | 0.0 | 0.0 | 0.00 | 0.00 | 0.00 | 73 | 1016.9 |
| 20260510110801 | 50 | 114 | 0.0 | 0.0 | 0.00 | 0.00 | 0.00 | 73 | 1016.9 |
| 20260510110301 | 50 | 114 | 0.0 | 0.0 | 0.00 | 0.00 | 0.00 | 73 | 1016.8 |
| 20260510110119 | 50 | 114 | 0.0 | 0.0 | 0.00 | 0.00 | 0.00 | 72 | 1016.8 |
| 20260510105306 | 50 | 114 | 0.0 | 0.0 | 0.00 | 0.00 | 0.00 | 72 | 1016.8 |
| 20260510104804 | 50 | 114 | 0.0 | 0.0 | 0.00 | 0.00 | 0.00 | 72 | 1016.9 |
| 20260510104305 | 50 | 114 | 0.0 | 0.0 | 0.00 | 0.00 | 0.00 | 71 | 1016.8 |
| 20260510103805 | 51 | 114 | 0.0 | 0.0 | 0.00 | 0.00 | 0.00 | 71 | 1016.9 |
| 20260510103557 | 51 | 114 | 0.0 | 0.0 | 0.00 | 0.00 | 0.00 | 71 | 1017.0 |
| 20260510102805 | 51 | 114 | 0.0 | 0.0 | 0.00 | 0.00 | 0.00 | 71 | 1017.1 |
| 20260510102306 | 51 | 114 | 0.0 | 1.0 | 0.00 | 0.00 | 0.00 | 71 | 1017.0 |
| 20260510101804 | 51 | 114 | 0.0 | 1.0 | 0.00 | 0.00 | 0.00 | 71 | 1016.9 |
| 20260510101304 | 51 | 114 | 0.0 | 0.0 | 0.00 | 0.00 | 0.00 | 71 | 1016.9 |
| 20260510100805 | 51 | 114 | 0.0 | 0.0 | 0.00 | 0.00 | 0.00 | 70 | 1017.0 |
| 20260510100304 | 51 | 114 | 0.0 | 0.0 | 0.00 | 0.00 | 0.00 | 70 | 1016.9 |
| 20260510095803 | 51 | 114 | 0.0 | 0.0 | 0.00 | 0.00 | 0.00 | 70 | 1017.0 |
| 20260510095306 | 51 | 114 | 0.0 | 0.0 | 0.00 | 0.00 | 0.00 | 70 | 1017.0 |
| 20260510094804 | 52 | 114 | 0.0 | 0.0 | 0.00 | 0.00 | 0.00 | 69 | 1016.9 |
| 20260510094305 | 52 | 114 | 0.0 | 0.0 | 0.00 | 0.00 | 0.00 | 69 | 1016.9 |
| 20260510093806 | 52 | 114 | 0.0 | 0.0 | 0.00 | 0.00 | 0.00 | 68 | 1017.1 |
| 20260510093305 | 52 | 114 | 0.0 | 0.0 | 0.00 | 0.00 | 0.00 | 68 | 1017.1 |
| 20260510092805 | 52 | 114 | 0.0 | 0.0 | 0.00 | 0.00 | 0.00 | 67 | 1017.1 |
| 20260510092307 | 52 | 114 | 0.0 | 0.0 | 0.00 | 0.00 | 0.00 | 67 | 1017.1 |
| 20260510091802 | 52 | 114 | 0.0 | 0.0 | 0.00 | 0.00 | 0.00 | 68 | 1017.0 |
| 20260510091301 | 52 | 114 | 0.0 | 0.0 | 0.00 | 0.00 | 0.00 | 68 | 1017.0 |
| 20260510090803 | 52 | 114 | 0.0 | 0.0 | 0.00 | 0.00 | 0.00 | 67 | 1017.0 |
| 20260510090301 | 52 | 114 | 0.0 | 0.0 | 0.00 | 0.00 | 0.00 | 67 | 1017.1 |
| 20260510085801 | 52 | 114 | 0.0 | 0.0 | 0.00 | 0.00 | 0.00 | 68 | 1017.2 |
| 20260510085306 | 52 | 114 | 0.0 | 0.0 | 0.00 | 0.00 | 0.00 | 68 | 1017.1 |
| 20260510084801 | 52 | 114 | 0.0 | 0.0 | 0.00 | 0.00 | 0.00 | 68 | 1017.2 |
| 20260510084557 | 53 | 114 | 0.0 | 0.0 | 0.00 | 0.00 | 0.00 | 68 | 1017.3 |
| 20260510084101 | 53 | 114 | 0.0 | 0.0 | 0.00 | 0.00 | 0.00 | 68 | 1017.3 |
| 20260510083302 | 53 | 114 | 0.0 | 0.0 | 0.00 | 0.00 | 0.00 | 68 | 1017.1 |
| 20260510083057 | 53 | 114 | 0.0 | 0.0 | 0.00 | 0.00 | 0.00 | 67 | 1017.1 |
| 20260510082306 | 53 | 114 | 0.0 | 1.0 | 0.00 | 0.00 | 0.00 | 67 | 1017.0 |
| 20260510081805 | 53 | 114 | 0.0 | 1.0 | 0.00 | 0.00 | 0.00 | 67 | 1016.8 |
| 20260510081304 | 53 | 114 | 0.0 | 1.0 | 0.00 | 0.00 | 0.00 | 66 | 1016.8 |
| 20260510080805 | 54 | 114 | 0.0 | 1.0 | 0.00 | 0.00 | 0.00 | 66 | 1016.8 |
| 20260510080557 | 54 | 114 | 0.0 | 0.0 | 0.00 | 0.00 | 0.00 | 66 | 1016.9 |
| 20260510075805 | 54 | 114 | 0.0 | 0.0 | 0.00 | 0.00 | 0.00 | 66 | 1016.9 |
| 20260510075311 | 55 | 114 | 0.0 | 1.0 | 0.00 | 0.00 | 0.00 | 65 | 1016.9 |
| 20260510074806 | 55 | 114 | 0.0 | 2.0 | 0.00 | 0.00 | 0.00 | 65 | 1017.0 |
| 20260510074305 | 55 | 114 | 0.0 | 2.0 | 0.00 | 0.00 | 0.00 | 64 | 1016.9 |
| 20260510073811 | 55 | 114 | 0.0 | 1.0 | 0.00 | 0.00 | 0.00 | 63 | 1017.0 |
| 20260510073552 | 55 | 114 | 0.0 | 1.0 | 0.00 | 0.00 | 0.00 | 62 | 1017.0 |
| 20260510072802 | 55 | 114 | 0.0 | 1.0 | 0.00 | 0.00 | 0.00 | 63 | 1016.9 |
| 20260510072305 | 55 | 114 | 0.0 | 1.0 | 0.00 | 0.00 | 0.00 | 63 | 1016.9 |
| 20260510071914 | 56 | 114 | 0.0 | 0.0 | 0.00 | 0.00 | 0.00 | 62 | 1017.0 |
| 20260510071850 | 55 | 114 | 0.0 | 0.0 | 0.00 | 0.00 | 0.00 | 62 | 1017.0 |
| 20260510070800 | 56 | 114 | 0.0 | 1.0 | 0.00 | 0.00 | 0.00 | 62 | 1017.1 |
| 20260510070304 | 56 | 114 | 0.0 | 1.0 | 0.00 | 0.00 | 0.00 | 62 | 1017.1 |
| 20260510065801 | 56 | 114 | 0.0 | 0.0 | 0.00 | 0.00 | 0.00 | 61 | 1016.9 |
| 20260510065306 | 56 | 114 | 0.0 | 0.0 | 0.00 | 0.00 | 0.00 | 60 | 1017.0 |
| 20260510064802 | 57 | 114 | 0.0 | 0.0 | 0.00 | 0.00 | 0.00 | 59 | 1017.0 |
| 20260510064302 | 57 | 114 | 0.0 | 0.0 | 0.00 | 0.00 | 0.00 | 59 | 1016.9 |
| 20260510063801 | 57 | 114 | 0.0 | 0.0 | 0.00 | 0.00 | 0.00 | 58 | 1016.9 |
| 20260510063301 | 58 | 114 | 0.0 | 0.0 | 0.00 | 0.00 | 0.00 | 57 | 1016.8 |
| 20260510062801 | 58 | 114 | 0.0 | 1.0 | 0.00 | 0.00 | 0.00 | 58 | 1016.8 |
| 20260510062307 | 58 | 114 | 0.0 | 1.0 | 0.00 | 0.00 | 0.00 | 58 | 1016.9 |
| 20260510062148 | 59 | 114 | 0.0 | 0.0 | 0.00 | 0.00 | 0.00 | 57 | 1017.0 |
| 20260510062144 | 58 | 114 | 0.0 | 0.0 | 0.00 | 0.00 | 0.00 | 57 | 1017.0 |
| 20260510060800 | 59 | 114 | 0.0 | 0.0 | 0.00 | 0.00 | 0.00 | 56 | 1017.0 |
| 20260510060303 | 59 | 114 | 0.0 | 0.0 | 0.00 | 0.00 | 0.00 | 55 | 1016.9 |
| 20260510055306 | 60 | 114 | 0.0 | 0.0 | 0.00 | 0.00 | 0.00 | 54 | 1017.0 |
| 20260510054801 | 60 | 114 | 0.0 | 0.0 | 0.00 | 0.00 | 0.00 | 53 | 1016.9 |
| 20260510054301 | 61 | 114 | 0.0 | 0.0 | 0.00 | 0.00 | 0.00 | 52 | 1016.9 |
| 20260510053803 | 61 | 114 | 0.0 | 0.0 | 0.00 | 0.00 | 0.00 | 51 | 1016.9 |
| 20260510053301 | 61 | 114 | 0.0 | 0.0 | 0.00 | 0.00 | 0.00 | 51 | 1017.0 |
| 20260510052802 | 62 | 114 | 0.0 | 0.0 | 0.00 | 0.00 | 0.00 | 51 | 1016.9 |
| 20260510052306 | 62 | 114 | 0.0 | 3.0 | 0.00 | 0.00 | 0.00 | 50 | 1017.0 |
| 20260510051805 | 61 | 114 | 0.0 | 3.0 | 0.00 | 0.00 | 0.00 | 49 | 1017.0 |
| 20260510051556 | 61 | 114 | 0.0 | 0.0 | 0.00 | 0.00 | 0.00 | 51 | 1017.0 |
| 20260510050805 | 62 | 114 | 0.0 | 1.0 | 0.00 | 0.00 | 0.00 | 50 | 1017.0 |
| 20260510045807 | 62 | 114 | 0.0 | 1.0 | 0.00 | 0.00 | 0.00 | 50 | 1017.0 |
| 20260510045310 | 62 | 114 | 0.0 | 1.0 | 0.00 | 0.00 | 0.00 | 49 | 1017.1 |
| 20260510044804 | 62 | 114 | 0.0 | 0.0 | 0.00 | 0.00 | 0.00 | 50 | 1017.1 |
| 20260510044301 | 62 | 114 | 0.0 | 0.0 | 0.00 | 0.00 | 0.00 | 49 | 1017.1 |
| 20260510043801 | 62 | 114 | 0.0 | 0.0 | 0.00 | 0.00 | 0.00 | 50 | 1017.0 |
| 20260510043301 | 62 | 114 | 0.0 | 0.0 | 0.00 | 0.00 | 0.00 | 51 | 1016.9 |
| 20260510042801 | 62 | 114 | 0.0 | 0.0 | 0.00 | 0.00 | 0.00 | 50 | 1016.8 |
| 20260510042305 | 63 | 114 | 0.0 | 0.0 | 0.00 | 0.00 | 0.00 | 49 | 1016.7 |
| 20260510042109 | 63 | 114 | 0.0 | 0.0 | 0.00 | 0.00 | 0.00 | 49 | 1016.8 |
| 20260510041302 | 63 | 114 | 0.0 | 0.0 | 0.00 | 0.00 | 0.00 | 48 | 1016.7 |
| 20260510040801 | 64 | 114 | 0.0 | 0.0 | 0.00 | 0.00 | 0.00 | 48 | 1016.7 |
| 20260510040302 | 64 | 114 | 0.0 | 2.0 | 0.00 | 0.00 | 0.00 | 48 | 1016.7 |
| 20260510035801 | 64 | 114 | 0.0 | 2.0 | 0.00 | 0.00 | 0.00 | 47 | 1016.6 |
| 20260510035415 | 65 | 114 | 0.0 | 2.0 | 0.00 | 0.00 | 0.00 | 47 | 1016.5 |
| 20260510035345 | 65 | 114 | 0.0 | 2.0 | 0.00 | 0.00 | 0.00 | 48 | 1016.6 |
| 20260510034259 | 65 | 114 | 0.0 | 1.0 | 0.00 | 0.00 | 0.00 | 49 | 1016.3 |
| 20260510033757 | 65 | 114 | 0.0 | 1.0 | 0.00 | 0.00 | 0.00 | 49 | 1016.3 |
| 20260510033258 | 65 | 114 | 0.0 | 1.0 | 0.00 | 0.00 | 0.00 | 49 | 1016.1 |
| 20260510032756 | 65 | 114 | 0.0 | 0.0 | 0.00 | 0.00 | 0.00 | 51 | 1016.1 |
| 20260510032555 | 66 | 114 | 0.0 | 0.0 | 0.00 | 0.00 | 0.00 | 51 | 1016.1 |
| 20260510031757 | 66 | 114 | 0.0 | 0.0 | 0.00 | 0.00 | 0.00 | 53 | 1015.9 |
| 20260510031257 | 66 | 114 | 0.0 | 0.0 | 0.00 | 0.00 | 0.00 | 52 | 1016.1 |
| 20260510030757 | 67 | 114 | 0.0 | 0.0 | 0.00 | 0.00 | 0.00 | 50 | 1016.1 |
| 20260510030553 | 67 | 114 | 0.0 | 0.0 | 0.00 | 0.00 | 0.00 | 51 | 1015.9 |
| 20260510025756 | 68 | 114 | 0.0 | 0.0 | 0.00 | 0.00 | 0.00 | 51 | 1015.9 |
| 20260510025551 | 68 | 114 | 0.0 | 0.0 | 0.00 | 0.00 | 0.00 | 52 | 1015.8 |
| 20260510024759 | 69 | 114 | 0.0 | 1.0 | 0.00 | 0.00 | 0.00 | 52 | 1015.8 |
| 20260510024258 | 69 | 114 | 0.0 | 1.0 | 0.00 | 0.00 | 0.00 | 50 | 1015.8 |
| 20260510024045 | 70 | 114 | 0.0 | 2.0 | 0.00 | 0.00 | 0.00 | 47 | 1015.7 |
| 20260510023248 | 70 | 114 | 1.0 | 3.0 | 0.00 | 0.00 | 0.00 | 46 | 1015.6 |
| 20260510023031 | 71 | 114 | 0.0 | 3.0 | 0.00 | 0.00 | 0.00 | 43 | 1015.6 |
| 20260510022236 | 71 | 115 | 0.0 | 2.0 | 0.00 | 0.00 | 0.00 | 44 | 1015.6 |
| 20260510021739 | 72 | 114 | 0.0 | 1.0 | 0.00 | 0.00 | 0.00 | 44 | 1015.5 |
| 20260510021240 | 72 | 115 | 0.0 | 1.0 | 0.00 | 0.00 | 0.00 | 45 | 1015.7 |
| 20260510020740 | 73 | 115 | 0.0 | 1.0 | 0.00 | 0.00 | 0.00 | 46 | 1015.6 |
| 20260510020239 | 73 | 115 | 0.0 | 4.0 | 0.00 | 0.00 | 0.00 | 44 | 1015.6 |
| 20260510015743 | 73 | 114 | 1.0 | 4.0 | 0.00 | 0.00 | 0.00 | 38 | 1015.6 |
| 20260510015546 | 73 | 152 | 0.0 | 3.0 | 0.00 | 0.00 | 0.00 | 38 | 1015.6 |
| 20260510014738 | 73 | 152 | 0.0 | 3.0 | 0.00 | 0.00 | 0.00 | 38 | 1015.7 |
| 20260510014236 | 74 | 159 | 0.0 | 2.0 | 0.00 | 0.00 | 0.00 | 40 | 1015.7 |
| 20260510013734 | 74 | 159 | 0.0 | 3.0 | 0.00 | 0.00 | 0.00 | 46 | 1015.8 |
| 20260510013237 | 73 | 151 | 0.0 | 3.0 | 0.00 | 0.00 | 0.00 | 44 | 1015.8 |
| 20260510012738 | 73 | 135 | 0.0 | 3.0 | 0.00 | 0.00 | 0.00 | 46 | 1015.8 |
| 20260510012235 | 73 | 135 | 1.0 | 3.0 | 0.00 | 0.00 | 0.00 | 46 | 1015.8 |
| 20260510011733 | 73 | 134 | 0.0 | 3.0 | 0.00 | 0.00 | 0.00 | 37 | 1015.9 |
| 20260510011235 | 73 | 134 | 0.0 | 3.0 | 0.00 | 0.00 | 0.00 | 37 | 1015.9 |
| 20260510010735 | 72 | 133 | 0.0 | 3.0 | 0.00 | 0.00 | 0.00 | 42 | 1015.9 |
| 20260510010234 | 73 | 134 | 0.0 | 3.0 | 0.00 | 0.00 | 0.00 | 40 | 1015.9 |
| 20260510010040 | 73 | 134 | 0.0 | 3.0 | 0.00 | 0.00 | 0.00 | 39 | 1016.1 |
| 20260510005235 | 73 | 134 | 0.0 | 2.0 | 0.00 | 0.00 | 0.00 | 34 | 1016.1 |
| 20260510004735 | 73 | 133 | 0.0 | 3.0 | 0.00 | 0.00 | 0.00 | 35 | 1016.1 |
| 20260510004235 | 73 | 133 | 0.0 | 5.0 | 0.00 | 0.00 | 0.00 | 36 | 1016.1 |
| 20260510003735 | 73 | 152 | 0.0 | 5.0 | 0.00 | 0.00 | 0.00 | 35 | 1016.1 |
| 20260510003237 | 73 | 143 | 0.0 | 4.0 | 0.00 | 0.00 | 0.00 | 35 | 1015.9 |
| 20260510002731 | 74 | 143 | 0.0 | 4.0 | 0.00 | 0.00 | 0.00 | 35 | 1015.9 |
| 20260510002531 | 74 | 163 | 0.0 | 2.0 | 0.00 | 0.00 | 0.00 | 36 | 1015.9 |
| 20260510002032 | 74 | 163 | 0.0 | 2.0 | 0.00 | 0.00 | 0.00 | 35 | 1015.9 |
| 20260510001229 | 75 | 163 | 0.0 | 5.0 | 0.00 | 0.00 | 0.00 | 36 | 1016.1 |
| 20260510000730 | 75 | 163 | 0.0 | 5.0 | 0.00 | 0.00 | 0.00 | 34 | 1016.1 |
| 20260510000230 | 75 | 166 | 1.0 | 6.0 | 0.00 | 0.00 | 0.00 | 35 | 1016.1 |
| 20260509235729 | 74 | 166 | 1.0 | 6.0 | 0.00 | 0.00 | 0.00 | 35 | 1016.1 |
| 20260509235229 | 75 | 56 | 1.0 | 6.0 | 0.00 | 0.00 | 0.00 | 34 | 1016.1 |
| 20260509234730 | 75 | 224 | 1.0 | 6.0 | 0.00 | 0.00 | 0.00 | 33 | 1016.1 |
| 20260509234229 | 75 | 47 | 1.0 | 6.0 | 0.00 | 0.00 | 0.00 | 35 | 1016.1 |
| 20260509233729 | 75 | 127 | 0.0 | 4.0 | 0.00 | 0.00 | 0.00 | 36 | 1016.1 |
| 20260509233230 | 74 | 128 | 1.0 | 6.0 | 0.00 | 0.00 | 0.00 | 36 | 1016.1 |
| 20260509233027 | 74 | 128 | 1.0 | 6.0 | 0.00 | 0.00 | 0.00 | 35 | 1016.3 |
| 20260509232339 | 75 | 66 | 1.0 | 7.0 | 0.00 | 0.00 | 0.00 | 34 | 1016.3 |
| 20260509232315 | 74 | 60 | 1.0 | 7.0 | 0.00 | 0.00 | 0.00 | 35 | 1016.2 |
| 20260509231231 | 74 | 185 | 2.0 | 7.0 | 0.00 | 0.00 | 0.00 | 36 | 1016.2 |
| 20260509230731 | 74 | 44 | 1.0 | 7.0 | 0.00 | 0.00 | 0.00 | 34 | 1016.3 |